Location: Le Gr�zie
(43.6000°N, 13.5000°E)
Time: 11:55:36
(UTC+00:00)

MOS 1 Rocket - Pass Details

Date: 09 April 2020
Orbit: 614 x 831 km, 97.4° (Epoch: 05 June)

Event Time Altitude Azimuth Distance (km) Brightness Sun altitude
Rises 19:15:46 0° 13° (NNE) 3,355 7.0 -16.6°
Reaches altitude 10° 19:18:08 10° 15° (NNE) 2,432 6.3 -17.0°
Maximum altitude 19:23:34 76° 101° (E) 860 3.6 -17.8°
Drops below altitude 10° 19:29:00 10° 188° (S) 2,420 5.8 -18.6°
Sets 19:31:20 0° 190° (S) 3,336 6.6 -19.0°
